Location: Monteux
(44.0348°N, 4.9972°E)
Time: 17:20:41
(UTC+00:00)

CZ-4 R/B - Pass Details

Date: 30 November 2020
Orbit: 532 x 597 km, 97.7° (Epoch: 22 January)

Event Time Altitude Azimuth Distance (km) Brightness Sun altitude
Rises 19:09:36 0° 201° (SSW) 2,706 5.1 -32.8°
Enters shadow 19:10:41 - 207° (SSW) 2,309 4.8 -33.0°
Exits shadow 19:16:47 16° 299° (WNW) 1,521 4.1 -34.1°
Drops below altitude 10° 19:18:07 10° 316° (NW) 1,871 4.5 -34.3°
Sets 19:20:46 0° 333° (NNW) 2,788 5.3 -34.8°
